Volver al catálogo

KUIPER-00153

ActivoComunicacionesLEO
NORAD 65773·PAYLOAD·🇺🇸 United States

Lanzado Sep 25, 2025 desde Cape Canaveral Space Force Station

Loading…

Próximos Pases (próximas 24 horas)

TLE

ActualizadoSource: CelesTrak SupGP

Época: Sep 14, 2026, 19:49 UTC

1 65773C 25217M   26257.82598380  .00000603  00000+0  78912-4 0  2576
2 65773  51.9012 269.3306 0000861  73.9883 140.9529 14.79926995    12

Sigue KUIPER-00153 en tiempo real con AllMySat

Download on the App Store